This demonstration page uses our WeatherBlox Daily Observations layout. Learn more.

Left ArrowRight Arrow

36.19886, -115.1175

Hourly Observations for February 9, 2017

Temp ( °F °C ) Dew Point ( °F °C ) Humidity (%) Winds ( mph kmh ) Pressure ( in mb ) Visibility ( mi km ) Precip ( " mm )
12:53 am 00:53 Clear 54 12.2 48 8.9 80 80 WNW 5 7 30.19 1022 10 16 0.00 0.00
1:53 am 01:53 Clear 53 11.7 48 8.9 83 83 NW 5 7 30.19 1022 10 16 0.00 0.00
2:53 am 02:53 Clear 53 11.7 47 8.3 80 80 NW 5 7 30.17 1022 10 16 0.00 0.00
3:53 am 03:53 Clear 52 11.1 47 8.3 83 83 WNW 3 6 30.16 1021 10 16 0.00 0.00
4:53 am 04:53 Clear 51 10.6 47 8.3 86 86 Calm 30.15 1021 10 16 0.00 0.00
5:53 am 05:53 Clear 51 10.6 46 7.8 83 83 WSW 3 6 30.16 1022 10 16 0.00 0.00
6:53 am 06:53 Sunny 50 10 46 7.8 86 86 Calm 30.17 1022 10 16 0.00 0.00
7:53 am 07:53 Sunny 54 12.2 48 8.9 80 80 Calm 30.17 1022 10 16 0.00 0.00
8:53 am 08:53 Sunny 58 14.4 48 8.9 70 70 Calm 30.16 1022 10 16 0.00 0.00
9:53 am 09:53 Sunny 62 16.7 49 9.4 62 62 SSE 5 7 30.15 1021 10 16 0.00 0.00
10:53 am 10:53 Sunny 65 18.3 48 8.9 54 54 Calm 30.13 1020 10 16 0.00 0.00
11:53 am 11:53 Sunny 66 18.9 48 8.9 52 52 SE 3 6 30.09 1019 10 16 0.00 0.00
12:53 pm 12:53 Sunny 69 20.6 48 8.9 47 47 SE 5 7 30.04 1017 10 16 0.00 0.00
1:53 pm 13:53 Sunny 71 21.7 48 8.9 44 44 VRB 5 7 30.00 1016 10 16 0.00 0.00
2:53 pm 14:53 Sunny 72 22.2 48 8.9 43 43 ESE 7 11 29.99 1016 10 16 0.00 0.00
3:53 pm 15:53 Sunny 73 22.8 48 8.9 41 41 ESE 6 9 29.98 1015 10 16 0.00 0.00
4:53 pm 16:53 Sunny 71 21.7 49 9.4 46 46 ENE 5 7 29.98 1015 10 16 0.00 0.00
5:53 pm 17:53 Clear 69 20.6 49 9.4 49 49 ENE 3 6 29.99 1016 10 16 0.00 0.00
6:53 pm 18:53 Clear 67 19.4 49 9.4 53 53 Calm 29.99 1016 10 16 0.00 0.00
7:53 pm 19:53 Clear 64 17.8 48 8.9 56 56 N 3 6 29.98 1015 10 16 0.00 0.00
8:53 pm 20:53 Clear 62 16.7 48 8.9 60 60 Calm 29.98 1015 10 16 0.00 0.00
9:53 pm 21:53 Clear 63 17.2 48 8.9 58 58 Calm 29.98 1015 10 16 0.00 0.00
10:53 pm 22:53 Clear 62 16.7 48 8.9 60 60 ESE 8 13 29.97 1015 10 16 0.00 0.00
11:53 pm 23:53 Clear 63 17.2 47 8.3 56 56 E 7 11 29.97 1015 10 16 0.00 0.00

Powered by AerisWeather